Date String (YYYY-MM-DD hh:mm:ss) UTC,Instrument flags,absolute air pressure of the measurement (hPa),sample flow rate (lpm),inlet stack bypass flow (lpm),air temperature of the measurement (°C),ambient temperature measured by the external sensor (°C),aerosol sample conditioner tube jacket temperature (°C),OPC LED temperature (°C),internal box temperature (°C),relative humidity of the measurement (%),span deviation,mass concentration of particles derived from Lorenz-Mie calculation of OPC scattering (μg/m³),mass concentration of particles derived from Lorenz-Mie calculation of OPC scattering (μg/m³),mass concentration of particles derived from Lorenz-Mie calculation of OPC scattering (μg/m³)
DateTimeUTC,F1_M11,P_M11,Q1_M11,Q2_M11,T1_M11,T2_M11,T3_M11,T4_M11,T5_M11,U1_M11,ZSPAN_M11,X2_M11,X0_M11,X1_M11
2023-11-01 02:00:00,SystemResetWarning,0834.8,5.00,000.00,025.1,023.8,000.0,033.6,026.5,10.8,0003.0,0007.86,0013.40,0007.33
2023-11-01 02:01:00,SystemResetWarning,0834.7,4.99,000.00,025.1,023.8,000.0,033.6,026.5,10.8,0002.6,0007.81,0013.27,0007.31
2023-11-01 02:02:00,SystemResetWarning,0834.8,4.99,000.00,025.1,023.8,000.0,033.6,026.5,10.8,0002.5,0007.81,0013.28,0007.31
2023-11-01 02:03:00,SystemResetWarning,0834.7,5.00,000.00,025.1,023.8,000.0,033.6,026.5,10.8,0002.1,0007.78,0013.01,0007.29
2023-11-01 02:04:00,SystemResetWarning,0834.7,5.00,000.00,025.1,023.8,000.0,033.5,026.4,10.7,0003.2,0007.76,0012.88,0007.29
2023-11-01 02:05:00,SystemResetWarning,0834.8,5.00,000.00,025.0,023.8,000.0,033.5,026.4,10.8,0003.6,0007.78,0012.98,0007.28
2023-11-01 02:06:00,SystemResetWarning,0834.8,5.01,000.00,025.0,023.8,000.0,033.5,026.4,10.8,0003.3,0007.77,0012.97,0007.28
2023-11-01 02:07:00,SystemResetWarning,0834.7,5.00,000.00,025.0,023.8,000.0,033.5,026.4,10.7,0003.2,0007.78,0012.26,0007.28
2023-11-01 02:08:00,SystemResetWarning,0834.7,5.00,000.00,025.0,023.8,000.0,033.5,026.4,10.7,0004.0,0007.70,0012.15,0007.23
2023-11-01 02:09:00,SystemResetWarning,0834.9,5.00,000.00,025.0,023.8,000.0,033.5,026.4,10.7,0003.6,0007.68,0012.24,0007.22
2023-11-01 02:10:00,SystemResetWarning,0835.0,5.00,000.00,025.0,023.7,000.0,033.5,026.4,10.9,0003.2,0007.74,0012.22,0007.25
2023-11-01 02:11:00,SystemResetWarning,0835.0,5.00,000.00,025.0,023.7,000.0,033.5,026.4,10.9,0002.8,0007.77,0012.34,0007.26
2023-11-01 02:12:00,SystemResetWarning,0835.1,5.00,000.00,025.0,023.7,000.0,033.5,026.4,10.7,0003.3,0007.80,0012.43,0007.27
2023-11-01 02:13:00,SystemResetWarning,0834.9,5.00,000.00,025.0,023.8,000.0,033.5,026.4,10.7,0003.4,0007.77,0012.25,0007.27
2023-11-01 02:14:00,SystemResetWarning,0835.2,5.00,000.00,025.0,023.7,000.0,033.5,026.4,10.7,0003.7,0007.79,0012.07,0007.27
2023-11-01 02:15:00,SystemResetWarning,0835.1,5.00,000.00,025.0,023.8,000.0,033.4,026.4,10.7,0003.7,0007.80,0012.09,0007.26
2023-11-01 02:16:00,SystemResetWarning,0835.2,5.00,000.00,025.0,023.7,000.0,033.4,026.3,10.7,0003.6,0007.79,0012.07,0007.24
2023-11-01 02:17:00,SystemResetWarning,0835.1,5.01,000.00,025.0,023.7,000.0,033.4,026.3,10.8,0003.4,0007.74,0011.87,0007.21
2023-11-01 02:18:00,SystemResetWarning,0835.0,5.01,000.00,025.0,023.7,000.0,033.4,026.3,11.1,0002.9,0007.69,0011.82,0007.18
2023-11-01 02:19:00,SystemResetWarning,0834.9,5.00,000.00,025.0,023.7,000.0,033.4,026.3,11.0,0002.5,0007.70,0012.07,0007.20
2023-11-01 02:20:00,SystemResetWarning,0834.8,4.99,000.00,024.9,023.7,000.0,033.4,026.3,10.9,0002.1,0007.69,0012.16,0007.20
2023-11-01 02:21:00,SystemResetWarning,0834.7,5.01,000.00,024.9,023.6,000.0,033.4,026.3,10.9,0001.9,0007.66,0012.13,0007.18
2023-11-01 02:22:00,SystemResetWarning,0834.7,5.01,000.00,024.9,023.6,000.0,033.4,026.3,10.9,0001.9,0007.64,0012.21,0007.17
2023-11-01 02:23:00,SystemResetWarning,0835.1,4.99,000.00,024.9,023.6,000.0,033.4,026.3,10.8,0001.9,0007.61,0012.23,0007.16
2023-11-01 02:24:00,SystemResetWarning,0835.2,4.99,000.00,024.9,023.6,000.0,033.4,026.3,10.8,0001.9,0007.62,0012.44,0007.15
2023-11-01 02:25:00,SystemResetWarning,0835.2,4.99,000.00,024.9,023.5,000.0,033.3,026.3,11.0,0002.4,0007.64,0012.60,0007.14
2023-11-01 02:26:00,SystemResetWarning,0835.0,5.01,000.00,024.9,023.5,000.0,033.3,026.2,10.9,0002.7,0007.62,0012.76,0007.12
2023-11-01 02:27:00,SystemResetWarning,0834.7,5.01,000.00,024.9,023.5,000.0,033.3,026.2,10.9,0002.9,0007.59,0012.67,0007.14
2023-11-01 02:28:00,SystemResetWarning,0834.6,5.00,000.00,024.8,023.5,000.0,033.3,026.2,10.8,0003.1,0007.59,0012.67,0007.17
2023-11-01 02:29:00,SystemResetWarning,0835.0,4.98,000.00,024.8,023.5,000.0,033.3,026.3,10.7,0003.9,0007.63,0012.71,0007.17
2023-11-01 02:30:00,SystemResetWarning,0835.0,5.01,000.00,024.8,023.6,000.0,033.3,026.2,10.7,0004.2,0007.63,0012.35,0007.16
2023-11-01 02:31:00,SystemResetWarning,0835.0,5.01,000.00,024.8,023.6,000.0,033.3,026.2,10.7,0004.7,0007.63,0011.55,0007.17
2023-11-01 02:32:00,SystemResetWarning,0835.0,4.99,000.00,024.8,023.6,000.0,033.3,026.2,10.7,0004.7,0007.63,0011.73,0007.18
2023-11-01 02:33:00,SystemResetWarning,0834.8,4.99,000.00,024.8,023.5,000.0,033.3,026.2,10.7,0004.6,0007.67,0011.67,0007.19
2023-11-01 02:34:00,SystemResetWarning,0834.5,5.00,000.00,024.8,023.6,000.0,033.3,026.1,11.0,0004.7,0007.75,0011.75,0007.21
2023-11-01 02:35:00,SystemResetWarning,0834.5,5.00,000.00,024.8,023.6,000.0,033.3,026.1,11.2,0004.3,0007.77,0011.64,0007.26
2023-11-01 02:36:00,SystemResetWarning,0834.7,5.00,000.00,024.8,023.5,000.0,033.3,026.1,11.1,0004.2,0007.79,0011.58,0007.30
2023-11-01 02:37:00,SystemResetWarning,0834.5,5.00,000.00,024.7,023.5,000.0,033.2,026.1,11.0,0004.1,0007.84,0011.65,0007.33
2023-11-01 02:38:00,SystemResetWarning,0834.5,5.00,000.00,024.7,023.5,000.0,033.2,026.1,10.9,0003.5,0007.87,0011.62,0007.36
2023-11-01 02:39:00,SystemResetWarning,0834.5,5.00,000.00,024.7,023.5,000.0,033.2,026.1,10.8,0003.6,0007.89,0011.65,0007.39
2023-11-01 02:40:00,SystemResetWarning,0834.5,5.00,000.00,024.7,023.5,000.0,033.2,026.1,10.8,0003.1,0007.91,0011.71,0007.44
2023-11-01 02:41:00,SystemResetWarning,0834.5,5.00,000.00,024.7,023.5,000.0,033.2,026.1,10.7,0003.2,0007.97,0011.98,0007.48
2023-11-01 02:42:00,SystemResetWarning,0834.5,5.00,000.00,024.7,023.5,000.0,033.2,026.2,10.7,0003.3,0007.98,0012.00,0007.48
2023-11-01 02:43:00,SystemResetWarning,0834.5,5.00,000.00,024.7,023.5,000.0,033.2,026.2,10.7,0003.6,0008.01,0011.79,0007.51
2023-11-01 02:44:00,SystemResetWarning,0834.4,5.00,000.00,024.7,023.5,000.0,033.2,026.2,10.6,0003.8,0008.06,0012.04,0007.56
2023-11-01 02:45:00,SystemResetWarning,0834.4,4.99,000.00,024.7,023.5,000.0,033.2,026.2,10.6,0003.4,0008.03,0011.98,0007.56
2023-11-01 02:46:00,SystemResetWarning,0834.4,4.99,000.00,024.7,023.5,000.0,033.2,026.2,10.7,0003.8,0007.97,0012.02,0007.52
2023-11-01 02:47:00,SystemResetWarning,0834.4,4.99,000.00,024.7,023.5,000.0,033.2,026.2,10.7,0004.2,0007.95,0012.12,0007.46
2023-11-01 02:48:00,SystemResetWarning,0834.4,5.00,000.00,024.7,023.5,000.0,033.2,026.2,10.6,0004.6,0007.90,0011.84,0007.44
2023-11-01 02:49:00,SystemResetWarning,0834.4,5.00,000.00,024.7,023.5,000.0,033.2,026.2,10.6,0004.7,0007.93,0011.88,0007.44
2023-11-01 02:50:00,SystemResetWarning,0834.4,5.00,000.00,024.7,023.5,000.0,033.2,026.2,10.7,0004.8,0007.93,0011.96,0007.40
2023-11-01 02:51:00,SystemResetWarning,0834.4,5.00,000.00,024.7,023.5,000.0,033.2,026.1,10.8,0005.0,0007.93,0013.23,0007.37
2023-11-01 02:52:00,SystemResetWarning,0834.4,5.00,000.00,024.7,023.5,000.0,033.1,026.1,10.9,0005.3,0007.89,0013.05,0007.36
2023-11-01 02:53:00,SystemResetWarning,0834.4,5.00,000.00,024.7,023.5,000.0,033.1,026.1,10.9,0005.0,0007.89,0013.07,0007.34
2023-11-01 02:54:00,SystemResetWarning,0834.5,5.00,000.00,024.7,023.5,000.0,033.1,026.1,11.0,0004.2,0007.86,0013.24,0007.28
2023-11-01 02:55:00,SystemResetWarning,0834.5,5.00,000.00,024.7,023.5,000.0,033.1,026.1,11.0,0004.2,0007.78,0012.89,0007.22
2023-11-01 02:56:00,SystemResetWarning,0834.5,5.00,000.00,024.7,023.4,000.0,033.1,026.0,10.9,0004.7,0007.78,0012.90,0007.19
2023-11-01 02:57:00,SystemResetWarning,0834.5,5.00,000.00,024.7,023.4,000.0,033.1,026.0,10.9,0004.2,0007.77,0012.76,0007.17
2023-11-01 02:58:00,SystemResetWarning,0834.5,5.00,000.00,024.6,023.4,000.0,033.1,026.0,10.9,0002.8,0007.79,0012.68,0007.18
2023-11-01 02:59:00,SystemResetWarning,0834.5,5.00,000.00,024.6,023.4,000.0,033.1,026.0,11.0,0001.7,0007.80,0012.97,0007.19
